STARLINK-35535

Last updated on Sun Dec 07 2025 00:02:05 GMT+0000 (Coordinated Universal Time)

1 66342U 25253Z 25340.45634290 .00082135 00000+0 19502-2 0 9992 2 66342 43.0008 21.8111 0002267 242.0871 117.9756 15.40732338 5954
UTC large
Height (km)
Speed (km/s)
/
Latitude / Longitude
Inclination (degrees)
Orbital Period (minutes)
Azimuth
Elevation
Range (km)
Doppler Factor

Next 0 passes for location: London (51.5072 / 0.1276)

Sorry there are no passes over London.